Weather History for Bellingham, WA

Change the Weather History Date:

Thursday, October 17, 2013

  Actual Average Record
Temperature  
Mean Temperature 52 °F 49 °F  
Max Temperature 59 °F 58 °F 68 °F (1989)
Min Temperature 44 °F 41 °F 27 °F (1949)
Degree Days  
Heating Degree Days 13 16  
Month to date heating degree days 258 232  
Cooling Degree Days 0 0  
Month to date cooling degree days 0 0  
Year to date cooling degree days 95 42  
Moisture  
Dew Point 46 °F    
Average Humidity 84    
Maximum Humidity 100    
Minimum Humidity 67    
Precipitation  
Precipitation 0.00 in 0.11 in 1.18 in (2005)
Month to date precipitation 1.75 1.64  
Year to date precipitation 22.25 23.77  
Sea Level Pressure  
Sea Level Pressure 30.26 in    
Wind  
Wind Speed 2 mph (NNW)    
Max Wind Speed 9 mph    
Max Gust Speed 13 mph    
Visibility 3 miles    
Events Fog    
T = Trace of Precipitation, MM = Missing Value Source: NWS Daily Summary

Daily Weather History Graph

Daily Weather History Graph

Search for Another Location

Airport:

Trip Planner

Search our weather history database for the weather conditions in past years. The results will help you decide how hot, cold, wet, or windy it might be!

Date:

Astronomy

Oct. 17, 2013 Rise Set
Actual Time 7:34 AM PDT 6:15 PM PDT
Civil Twilight 7:02 AM PDT 6:47 PM PDT
Nautical Twilight 6:25 AM PDT 7:24 PM PDT
Astronomical Twilight 5:48 AM PDT 8:00 PM PDT
Moon 5:35 PM PDT (10/17) 6:07 AM PDT (10/17)
Length of Visible Light 11h 45m
Length of Day
10h 41m
Waxing Gibbous, 98% of the Moon is Illuminated
Oct 17
Waxing Gibbous
Oct 18
Full
Oct 26
Last Quarter
Nov 3
New
Nov 9
First Quarter

Hourly Weather History & Observations

Time (PDT) Temp. Windchill Dew Point Humidity Pressure Visibility Wind Dir Wind Speed Gust Speed Precip Events Conditions
12:53 AM 51.1 °F - 48.9 °F 92% 30.24 in 9.0 mi Calm Calm - N/A   Overcast
1:53 AM 50.0 °F - 48.9 °F 96% 30.25 in 7.0 mi Calm Calm - N/A   Overcast
2:19 AM 50.0 °F - 48.2 °F 94% 30.23 in 7.0 mi Calm Calm - N/A   Overcast
2:53 AM 50.0 °F - 48.0 °F 93% 30.25 in 6.0 mi Calm Calm - N/A   Overcast
3:35 AM 46.4 °F - 46.4 °F 100% 30.22 in 2.5 mi Calm Calm - N/A   Mostly Cloudy
3:42 AM 48.2 °F - 46.4 °F 93% 30.22 in 0.8 mi Calm Calm - N/A   Overcast
3:50 AM 46.4 °F - 44.6 °F 93% 30.22 in 0.5 mi Calm Calm - N/A Fog Fog
3:53 AM 46.9 °F - 46.0 °F 97% 30.25 in 0.5 mi Calm Calm - N/A Fog Fog
4:07 AM 48.2 °F - 46.4 °F 93% 30.23 in 1.0 mi Calm Calm - N/A   Overcast
4:30 AM 48.2 °F - 46.4 °F 93% 30.23 in 3.0 mi Calm Calm - N/A   Overcast
4:53 AM 48.0 °F - 46.0 °F 93% 30.26 in 4.0 mi Calm Calm - N/A   Overcast
5:26 AM 46.4 °F - 46.4 °F 100% 30.24 in 1.5 mi Calm Calm - N/A   Overcast
5:30 AM 46.4 °F - 46.4 °F 100% 30.24 in 0.5 mi Calm Calm - N/A Fog Fog
5:53 AM 44.1 °F - 43.0 °F 96% 30.28 in 0.2 mi Calm Calm - N/A Fog Fog
6:09 AM 44.6 °F 43.1 °F 44.6 °F 100% 30.25 in 0.2 mi NNE 3.5 mph - N/A Fog Fog
6:16 AM 44.6 °F - 44.6 °F 100% 30.25 in 0.2 mi Calm Calm - N/A Fog Fog
6:53 AM 45.0 °F 43.5 °F 44.1 °F 97% 30.28 in 0.1 mi North 3.5 mph - N/A Fog Fog
7:22 AM 44.6 °F 43.1 °F 42.8 °F 93% 30.26 in 0.1 mi North 3.5 mph - N/A Fog Fog
7:53 AM 44.1 °F 42.5 °F 43.0 °F 96% 30.29 in 0.1 mi North 3.5 mph - N/A Fog Fog
8:53 AM 44.1 °F 41.5 °F 43.0 °F 96% 30.31 in 0.2 mi North 4.6 mph - N/A Fog Fog
9:53 AM 45.0 °F 42.6 °F 43.0 °F 93% 30.31 in 0.1 mi North 4.6 mph - N/A Fog Fog
10:00 AM 44.6 °F 43.1 °F 44.6 °F 100% 30.29 in 0.1 mi North 3.5 mph - N/A Fog Fog
10:21 AM 46.4 °F - 44.6 °F 93% 30.28 in 0.8 mi Calm Calm - N/A   Mist
10:25 AM 46.4 °F - 44.6 °F 93% 30.28 in 0.2 mi Calm Calm - N/A Fog Fog
10:53 AM 46.9 °F - 46.0 °F 97% 30.31 in 0.5 mi NNW 3.5 mph - N/A Fog Fog
11:01 AM 48.2 °F - 48.2 °F 100% 30.28 in 1.0 mi Calm Calm - N/A   Mostly Cloudy
11:09 AM 48.2 °F - 48.2 °F 100% 30.28 in 3.0 mi Calm Calm - N/A   Scattered Clouds
11:34 AM 48.2 °F - 46.4 °F 93% 30.28 in 6.0 mi Calm Calm - N/A   Clear
11:53 AM 54.0 °F - 45.0 °F 72% 30.30 in 6.0 mi Variable 3.5 mph - N/A   Haze
12:53 PM 57.0 °F - 46.0 °F 67% 30.30 in 10.0 mi Calm Calm - N/A   Clear
1:53 PM 57.0 °F - 48.0 °F 72% 30.28 in 10.0 mi Variable 3.5 mph - N/A   Clear
2:53 PM 55.9 °F - 48.0 °F 75% 30.28 in 10.0 mi West 6.9 mph - N/A   Clear
3:53 PM 54.0 °F - 46.9 °F 77% 30.27 in 10.0 mi West 8.1 mph - N/A   Clear
4:53 PM 53.1 °F - 48.0 °F 83% 30.25 in 10.0 mi Calm Calm - N/A   Clear
5:53 PM 50.0 °F - 46.9 °F 89% 30.26 in 10.0 mi West 5.8 mph - N/A   Clear
6:15 PM 48.2 °F - 46.4 °F 93% 30.24 in 4.0 mi West 5.8 mph - N/A   Mostly Cloudy
6:18 PM 48.2 °F - 46.4 °F 93% 30.24 in 1.8 mi West 6.9 mph - N/A   Mostly Cloudy
6:32 PM 48.2 °F - 46.4 °F 93% 30.24 in 0.2 mi Calm Calm - N/A Fog Fog
6:48 PM 48.2 °F - 48.2 °F 100% 30.23 in 0.2 mi Calm Calm - N/A Fog Fog
6:53 PM 48.0 °F - 48.0 °F 100% 30.26 in 0.2 mi Calm Calm - N/A Fog Fog
7:02 PM 48.2 °F - 46.4 °F 93% 30.24 in 0.2 mi Calm Calm - N/A Fog Fog
7:53 PM 48.0 °F - 46.9 °F 96% 30.27 in 0.2 mi Calm Calm - N/A Fog Fog
8:53 PM 46.9 °F - 46.0 °F 97% 30.27 in 0.2 mi Calm Calm - N/A Fog Fog
9:53 PM 48.0 °F - 46.9 °F 96% 30.28 in 0.2 mi Calm Calm - N/A Fog Fog
10:53 PM 46.9 °F - 46.0 °F 97% 30.28 in 0.2 mi Calm Calm - N/A Fog Fog
11:13 PM 46.4 °F - 44.6 °F 93% 30.26 in 0.2 mi Calm Calm - N/A Fog Fog
11:29 PM 46.4 °F - 46.4 °F 100% 30.26 in 0.2 mi Calm Calm - N/A Fog Fog
11:53 PM 46.0 °F - 45.0 °F 96% 30.28 in 0.2 mi Calm Calm - N/A Fog Fog